Weather Roundup
Issued by NWS

Home | Current Version | Previous Version | Text Only | Print | Product List | Glossary On
Versions: 1 2 3 4 5 6 7 8 9 10 11 12 13 14 15 16 17 18 19 20 21 22 23 24 25 26 27 28 29 30 31 32 33 34 35 36 37 38 39 40 41 42 43 44 45 46 47 48 49 50
000
NZUS93 KARX 300210
HRRWXR

CURRENT HOURLY OBSERVATIONS ACROSS
MUCH OF THE UPPER MISSISSIPPI VALLEY
NATIONAL WEATHER SERVICE LA CROSSE WI
900 PM CDT FRI MAY 29 2015


...SOUTHEAST MINNESOTA...


CITY           SKY/WX    TMP DP  RH WIND       PRES   REMARKS
ROCHESTER      LGT RAIN  64  63  96 CALM      29.92S
ROCHESTER/MAYO CLOUDY    64  65 100 N3        29.91S
WINONA         RAIN      66  64  94 CALM      29.90R
AUSTIN         LGT RAIN  63  61  94 N6        29.90S
ALBERT LEA     LGT RAIN  64  63  94 N8        29.92R
DODGE CENTER   CLOUDY    64  63  94 N7        29.92S
PRESTON        CLOUDY    63  61  95 CALM      29.91F
OWATONNA       DRIZZLE   63  61  94 N17       29.94R
FARIBAULT      RAIN      61  59  94 NW14G20   29.96R
$$

...ELSEWHERE IN MINNESOTA...


CITY           SKY/WX    TMP DP  RH WIND       PRES   REMARKS
MINNEAPOLIS    CLOUDY    56  53  90 N20G25    29.99R
INTNL FALLS    CLOUDY    49  36  61 N12G24    30.13R
DULUTH         CLOUDY    52  43  71 N12G20    30.03R
RED WING       LGT RAIN  64  61  88 NE6       29.91S
REDWOOD FALLS  CLOUDY    54  50  86 N8        30.06R
MANKATO        CLOUDY    57  54  88 N18G28    29.99R
WORTHINGTON    CLOUDY    50  45  81 N18G31    30.06R
FAIRMONT       CLOUDY    55  50  82 NW23G29   29.99R
$$

...SOUTHWEST WISCONSIN...


CITY           SKY/WX    TMP DP  RH WIND       PRES   REMARKS
LA CROSSE      CLOUDY    67  64  90 N5        29.89R
PRAIRIE DU CHI CLOUDY    70  62  76 CALM      29.89R
BOSCOBEL       LGT RAIN  70  64  81 CALM      29.89R
LONE ROCK      CLOUDY    72  62  71 NW12      29.89R
PLATTEVILLE    CLOUDY    72  69  90 SW5       29.91R
FORT MC COY    DRIZZLE   65  64  95 CALM      29.91R
CAMP DOUGLAS   LGT RAIN  64  64 100 E1        29.90S
VIROQUA        FAIR      65  65 100 N8        29.91S
WIS DELLS      CLOUDY    69  61  75 N12G17    29.90R
$$

...ELSEWHERE IN WISCONSIN...


CITY           SKY/WX    TMP DP  RH WIND       PRES   REMARKS
MILWAUKEE      CLOUDY    72  66  81 SW7       29.89S
MADISON        CLOUDY    73  63  70 SW6       29.88S
GREEN BAY      LGT RAIN  66  63  90 N6        29.87R
EAU CLAIRE     CLOUDY    64  60  87 N5        29.91R
BLACK RVR FLS  RAIN      65  65 100 CALM      29.89F
MEDFORD        RAIN      61  60  96 NE6       29.92R
WAUSAU         LGT RAIN  64  62  93 N6        29.89R
WIS RAPIDS     LGT RAIN  65  63  93 NW3       29.91R
MARSHFIELD     LGT RAIN  66  62  87 N7        29.90S
RICE LAKE      RAIN      59  55  88 N12       29.98R
$$

...NORTHEAST IOWA...


CITY           SKY/WX    TMP DP  RH WIND       PRES   REMARKS
DECORAH        CLOUDY    66  66 100 CALM      29.89S
MASON CITY     CLOUDY    66  64  93 NW7       29.91R
CHARLES CITY   CLOUDY    68  68 100 W8        29.90R
OELWEIN        CLOUDY    70  66  88 SW8       29.90S
$$

...ELSEWHERE IN IOWA...


CITY           SKY/WX    TMP DP  RH WIND       PRES   REMARKS
DES MOINES     MOCLDY    71  63  75 SW6       29.92R
IOWA CITY      CLOUDY    71  64  78 SW8       29.94R
FORT DODGE     CLOUDY    61  55  82 NW10G21   29.96R
$$

...NORTHERN ILLINOIS...


CITY           SKY/WX    TMP DP  RH WIND       PRES   REMARKS
CHICAGO-OHARE  MOCLDY    77  63  61 SW6       29.91S
CHICAGO-MIDWAY MOCLDY    78  67  68 S10G21    29.92S
MOLINE         CLOUDY    72  65  78 CALM      29.93R
ROCKFORD       CLOUDY    69  67  93 S3        29.93R
PEORIA         CLOUDY    74  66  76 S10       29.95S
$$

NOTE: "FAIR" INDICATES FEW OR NO CLOUDS BELOW 12,000 FEET WITH NO
SIGNIFICANT WEATHER AND/OR OBSTRUCTIONS TO VISIBILITY. WIND
SPEEDS ARE IN MILES-PER-HOUR.



USA.gov is the U.S. government's official web portal to all federal, state and local government web resources and services.